Weather Roundup
Issued by NWS Springfield, MO

Home | Current Version | Previous Version | Text Only | Print | Product List | Glossary On
Versions: 1 2 3 4 5 6 7 8 9 10 11 12 13 14 15 16 17 18 19 20 21 22 23 24 25 26 27 28 29 30 31 32 33 34 35 36 37 38 39 40 41 42 43 44 45 46 47 48 49 50
000
NZUS99 KSGF 200107
HRRSGF

HOURLY WEATHER
NATIONAL WEATHER SERVICE SPRINGFIELD MO
700 PM CST SUN NOV 19 2017

......SGF CWA......

CITY           SKY/WX    TMP DP  RH WIND       PRES   REMARKS
SPRINGFIELD    CLEAR     35  27  72 S5        30.19R WCI  31
JOPLIN         CLEAR     41  30  65 S7        30.19S
WEST PLAINS    CLEAR     35  20  54 CALM      30.21R
ROLLA          CLEAR     35  22  58 S6        30.18F WCI  30
OSAGE BEACH    CLEAR     38  23  55 S5        30.20R WCI  34
BRANSON        PTCLDY    37  27  65 CALM      30.22R

......SURROUNDING SGF CWA......

CITY           SKY/WX    TMP DP  RH WIND       PRES   REMARKS
CHANUTE        CLOUDY    42  30  62 S8        30.15S
PARSONS        CLEAR     44  30  57 S3        30.17S
COFFEYVILLE    CLEAR     44  30  57 S6        30.17S
EMPORIA        CLEAR     40  24  53 S9        30.10S WCI  34
GROVE OK       CLEAR     41  32  70 CALM        N/A
ROGERS AR      PTCLDY    42  28  57 S3        30.21R
SILOAM SPRINGS CLEAR     44  26  49 CALM      30.21S
HARRISON AR    CLEAR     42  24  49 CALM      30.21R
NEAR YELLVILLE CLEAR     42  25  50 CALM      30.23R

......KANSAS AND MISSOURI......

CITY           SKY/WX    TMP DP  RH WIND       PRES   REMARKS
KANSAS CTY INT PTCLDY    38  29  70 S10       30.08F WCI  31
DOWNTOWN KC    CLEAR     48  29  47 S9        30.09F
COLUMBIA       CLEAR     36  24  62 S6        30.17S WCI  31
SEDALIA        CLEAR     37  29  72 S9        30.16F WCI  30
ST JOSEPH      CLEAR     42  28  57 S3        30.06F
ST LOUIS       CLEAR     36  23  59 CALM      30.20S
SPIRIT OF STL  CLEAR     31  24  75 CALM      30.19S
KIRKSVILLE     CLEAR     37  27  67 S9        30.11S WCI  30
WICHITA        CLOUDY    46  25  43 S10       30.09S
TOPEKA         CLEAR     48  24  39 S8        30.07F
OLATHE         CLEAR     42  29  59 S6        30.10F

......TENNESSEE......

CITY           SKY/WX    TMP DP  RH WIND       PRES   REMARKS
MEMPHIS        CLEAR     43  27  53 NE3       30.22S
NASHVILLE      CLEAR     40  23  50 NW5       30.21R

......ARKANSAS.......

CITY           SKY/WX    TMP DP  RH WIND       PRES   REMARKS
FAYETTEVILLE   CLEAR     36  30  79 CALM      30.21R
FT SMITH       CLEAR     46  32  58 W3        30.22S
LITTLE ROCK    PTCLDY    45  29  53 CALM      30.24R

......OKLAHOMA.......

CITY           SKY/WX    TMP DP  RH WIND       PRES   REMARKS
TULSA          PTCLDY    49  25  39 SE6       30.18S
PONCA CITY     CLEAR     51  23  33 S7        30.14S
MCALESTER      PTCLDY    42  31  64 CALM      30.22S
OKLAHOMA CITY  CLEAR     44  24  45 S8        30.17S

......IOWA............

CITY           SKY/WX    TMP DP  RH WIND       PRES   REMARKS
DES MOINES     CLOUDY    39  26  59 S9        30.01S WCI  33
QUAD CITIES    CLEAR     32  20  61 S6        30.08S WCI  26

......ILLINOIS........

CITY           SKY/WX    TMP DP  RH WIND       PRES   REMARKS
QUINCY         CLEAR     33  24  69 S8        30.14S WCI  26
CHICAGO        CLEAR     31  20  63 W8        30.06S WCI  23




USA.gov is the U.S. government's official web portal to all federal, state and local government web resources and services.